Regional Weather Roundup
Issued by NWS

Home | Current Version | Previous Version | Text Only | Print | Product List | Glossary On
Versions: 1 2 3 4 5 6 7 8 9 10 11 12 13 14 15 16 17 18 19 20 21 22 23 24 25 26 27 28 29 30 31 32 33 34 35 36 37 38 39 40 41 42 43 44 45 46 47 48 49 50
000
ASUS43 KLMK 011810
RWRKY
KENTUCKY REGIONAL WEATHER ROUNDUP
NATIONAL WEATHER SERVICE LOUISVILLE KY
200 PM EDT TUE SEP 01 2015

NOTE "FAIR" INDICATES FEW OR NO CLOUDS BELOW 12,000 FEET
WITH NO SIGNIFICANT WEATHER AND/OR OBSTRUCTIONS TO VISIBILITY.

KYZ001>023-026-027-061>063-070>075-011900-
WESTERN AND SOUTH CENTRAL KENTUCKY

CITY           SKY/WX    TMP DP  RH WIND       PRES   REMARKS
PADUCAH        MOSUNNY   88  66  48 SE7       30.11F HX  90
HENDERSON      MOSUNNY   86  66  51 CALM      30.10F
OWENSBORO      MOSUNNY   90  67  46 S6        30.12F HX  93
HOPKINSVILLE   MOSUNNY   86  65  49 NW2       30.11F
BOWLING GREEN  SUNNY     89  64  43 E7        30.13F HX  90
GLASGOW        SUNNY     88  65  46 CALM      30.13F HX  90
$$

KYZ024-025-028>034-038-045-046-053-011900-
NORTH CENTRAL KENTUCKY

CITY           SKY/WX    TMP DP  RH WIND       PRES   REMARKS
LOUISVILLE/SDF PTSUNNY   88  65  46 CALM      30.11F HX  90
LOUISVILLE/LOU PTSUNNY   86  65  49 CALM      30.13F
FORT KNOX      MOSUNNY   87  65  47 SW5       30.12F
$$

KYZ035>037-039>044-047>052-055>060-089>105-011900-
NORTHEAST KENTUCKY

CITY           SKY/WX    TMP DP  RH WIND       PRES   REMARKS
LEXINGTON      MOSUNNY   87  64  46 W5        30.15F
COVINGTON      PTSUNNY   87  65  47 S3        30.13F
FRANKFORT      PTSUNNY   87  64  46 VRB7      30.13F
$$

KYZ054-064>069-076>088-106>120-011900-
SOUTHEAST KENTUCKY

CITY           SKY/WX    TMP DP  RH WIND       PRES   REMARKS
JACKSON        MOSUNNY   84  65  52 CALM      30.17F
LONDON         MOSUNNY   87  61  41 CALM      30.15F
SOMERSET       PTSUNNY   82  63  51 NE5       30.15F
MIDDLESBORO    MOSUNNY   86  66  50 CALM      30.14F
MONTICELLO     CLEAR     88  67  49 VRB6      30.17F HX  91
$$




USA.gov is the U.S. government's official web portal to all federal, state and local government web resources and services.